    Orbital elements:
    2016 TQ2                                                 Earth MOID = 0.0067 AU
    Epoch 2016 July 31.0 TT = JDT 2457600.5                 MPC
    M 351.86032              (2000.0)            P               Q
    n   0.38925423     Peri.  296.04681     +0.60409803     +0.79615500
    a   1.8577210      Node    11.31695     -0.65333034     +0.51970787
    e   0.5627020      Incl.   10.17949     -0.45631682     +0.30990474
    P   2.53           H   26.5           G   0.15           U   6
    Residuals in seconds of arc
    161004 703  0.2+  0.2-    161004 G96  0.0   0.0     161004 C77  0.1+  0.1+
    161004 703  1.2-  1.2-    161004 G96  0.3-  0.3-    161004 C77  0.0   0.4+
    161004 703  0.3-  0.2-    161004 G96  0.1-  0.1+    161004 C77  0.3-  0.0
    161004 703  0.3+  0.4-    161004 G96  0.1-  0.5-    161004 160  0.1+  0.6+
    161004 703  0.2-  0.5+    161004 G96  0.1+  0.3-    161004 160  0.2+  0.2+
    161004 703  0.7+  0.7+    161004 G96  0.3-  0.5-    161004 595  0.1+  0.5-
    161004 703  1.0+  0.3+    161004 587  0.1-  0.0     161004 160  0.4+  0.0
    161004 G96  0.0   0.1+    161004 587  0.2-  0.1+    161004 595  0.4+  0.3-
    161004 G96  0.1+  0.3+    161004 587  0.5-  0.2+    161004 595  0.5+  0.2-
    161004 G96  0.0   0.1+    161004 K51  0.5-  0.0     161004 204  0.1-  0.3+
    161004 G96  0.1+  0.2-    161004 K51  0.4-  0.1+    161004 204  0.0   0.1+
    161004 703  0.6-  0.8+    161004 K51  0.0   0.2+    161004 204  0.1+  0.1-
    161004 703  0.3+  0.6+    161004 J95  0.5+  0.0     161004 204  0.0   0.1+
    161004 703  0.1+  0.4+    161004 J95  0.2-  0.1+    161004 204  0.1-  0.1+
    161004 703  0.3-  0.5+    161004 J95  0.1-  0.2-    161005 H01  0.0   0.3-
    161004 I52  0.0   0.0     161004 104  0.3+  0.3+    161005 H01  0.1+  0.3-
    161004 I52  0.0   0.4-    161004 107  0.0   0.4-    161005 H01  0.0   0.3-
    161004 I52  0.1-  0.2+    161004 104  0.1+  0.3+    161005 H01  0.1-  0.3-
    161004 I52  0.1+  0.0     161004 104  0.0   0.1-    161005 926  0.0   0.4+
    161004 G96  0.2+  0.1-    161004 107  0.5-  0.7-    161005 926  0.2-  0.1+
    161004 G96  0.0   0.3-    161004 107  0.8-  0.2+    161005 926  0.2-  0.1+
    
    Ephemeris:
    2016 TQ2                 a,e,i = 1.86, 0.56, 10                  q = 0.8124
    Date    TT    R. A. (2000) Decl.     Delta      r     Elong.  Phase     V
    2016 09 05    12 40 01.4 -27 58 33   0.2538  0.8403    42.9   125.2    28.4
    ...
    2016 09 20    12 49 20.1 -32 44 07   0.1135  0.9157    36.6   139.1    28.3
    ...
    2016 09 28    13 00 56.0 -40 13 37   0.04245 0.9696    39.4   139.0    26.3
    ...
    2016 10 04    00 06 56.3 -06 07 33   0.01435 1.0143   166.6    13.2    18.1
    2016 10 05    00 20 11.7 +07 17 21   0.02211 1.0220   173.6     6.3    18.8
    2016 10 06    00 26 35.8 +13 32 56   0.03049 1.0298   170.1     9.6    19.6
    ...
    2016 10 12    00 37 57.1 +23 25 58   0.08343 1.0777   162.2    16.4    22.2
    ...
    2016 10 20    00 42 06.2 +25 38 09   0.1570  1.1441   159.5    17.7    23.7
    ...
    2016 11 04    00 48 44.7 +25 56 07   0.3072  1.2723   152.6    21.1    25.5
    
    A. U. Tomatic                (C) Copyright 2016 MPC           M.P.E.C. 2016-T40
    

    Read MPEC 2016-T39 Read MPEC 2016-T41


    MPEC number:

    Enter an MPEC number in one of the following forms:

    • 1997-B01 (the full form)
    • J97B01 (the packed version of the full form)
    • B01 (the abbreviated form)